CW4534 Weather Reports


time (UTC)temp
C
wind
direction
speed
KPH
gust
KPH
rain 1hr
cm
rain 24hr
cm
rain mn
cm
humidity
%
barometer
mb
20260507123030 10 11 0.0 1.6 0.00 0.00 0.00 52 1018.6
20260507121538 10 0 0.0 8.0 0.00 0.00 0.00 52 1018.7
20260507120041 11 356 11.3 16.1 0.00 0.00 0.00 49 1018.6
20260507114533 10 353 9.7 16.1 0.00 0.00 0.00 50 1018.6
20260507113032 10 10 11.3 16.1 0.00 0.00 0.00 52 1018.7
20260507111532 10 347 8.0 14.5 0.00 0.00 0.00 52 1018.8
20260507110034 10 359 8.0 16.1 0.00 0.00 0.00 50 1018.6
20260507104535 10 11 8.0 11.3 0.00 0.00 0.00 51 1018.7
20260507103034 10 354 6.4 12.9 0.00 0.00 0.00 52 1018.5
20260507101537 11 13 3.2 8.0 0.00 0.00 0.00 48 1018.6
20260507100039 11 329 3.2 4.8 0.00 0.00 0.00 47 1018.5
20260507094538 10 329 6.4 6.4 0.00 0.00 0.00 50 1018.5
20260507093032 12 15 4.8 6.4 0.00 0.00 0.00 46 1018.5
20260507091535 12 355 1.6 8.0 0.00 0.00 0.00 44 1018.4
20260507090037 13 333 3.2 4.8 0.00 0.00 0.00 41 1018.3
20260507084534 13 343 4.8 6.4 0.00 0.00 0.00 40 1018.2
20260507083035 13 333 4.8 6.4 0.00 0.00 0.00 41 1018.2
20260507081543 14 347 4.8 11.3 0.00 0.00 0.00 41 1018.1
20260507080033 14 348 4.8 11.3 0.00 0.00 0.00 40 1017.9
20260507074552 14 13 3.2 11.3 0.00 0.00 0.00 40 1017.8
20260507073035 14 336 3.2 4.8 0.00 0.00 0.00 38 1017.7
20260507071535 15 26 0.0 3.2 0.00 0.00 0.00 38 1017.7
20260507070034 16 0 0.0 0.0 0.00 0.00 0.00 37 1017.9
20260507064532 16 0 0.0 0.0 0.00 0.00 0.00 35 1017.7
20260507063034 18 0 0.0 0.0 0.00 0.00 0.00 33 1017.5
20260507061534 18 71 0.0 0.0 0.00 0.00 0.00 32 1017.3
20260507060035 18 0 0.0 3.2 0.00 0.00 0.00 32 1017.2
20260507054542 18 0 0.0 1.6 0.00 0.00 0.00 32 1017.1
20260507053035 18 0 0.0 6.4 0.00 0.00 0.00 31 1017.1
20260507051531 19 0 0.0 4.8 0.00 0.00 0.00 31 1016.8
20260507050032 20 124 0.0 1.6 0.00 0.00 0.00 31 1016.6
20260507044539 20 120 0.0 6.4 0.00 0.00 0.00 30 1016.4
20260507043035 20 199 4.8 9.7 0.00 0.00 0.00 30 1016.4
20260507041534 20 117 4.8 11.3 0.00 0.00 0.00 30 1016.0
20260507040037 21 152 0.0 19.3 0.00 0.00 0.00 28 1015.8
20260507034533 21 209 12.9 29.0 0.00 0.00 0.00 27 1015.5
20260507033034 21 234 19.3 33.8 0.00 0.00 0.00 27 1015.1
20260507031534 22 235 20.9 35.4 0.00 0.00 0.00 27 1014.9
20260507030044 22 239 20.9 35.4 0.00 0.00 0.00 26 1014.6
20260507024541 22 198 19.3 38.6 0.00 0.00 0.00 26 1014.3
20260507023034 22 221 19.3 35.4 0.00 0.00 0.00 25 1014.0
20260507021535 23 226 14.5 29.0 0.00 0.00 0.00 25 1013.7
20260507020034 23 259 16.1 35.4 0.00 0.00 0.00 25 1013.6
20260507014545 24 269 17.7 32.2 0.00 0.00 0.00 24 1013.4
20260507013033 25 277 16.1 22.5 0.00 0.00 0.00 22 1013.3
20260507011534 26 280 11.3 29.0 0.00 0.00 0.00 21 1013.2
20260507010034 26 267 9.7 16.1 0.00 0.00 0.00 20 1013.3
20260507004532 26 158 4.8 11.3 0.00 0.00 0.00 20 1013.1
20260507003035 26 153 8.0 12.9 0.00 0.00 0.00 20 1013.1
20260507001537 27 131 4.8 12.9 0.00 0.00 0.00 19 1013.1
20260507000040 27 164 0.0 6.4 0.00 0.00 0.00 20 1013.0
20260506234534 26 241 3.2 14.5 0.00 0.00 0.00 20 1013.0
20260506233034 26 0 3.2 14.5 0.00 0.00 0.00 20 1013.1
20260506231531 26 124 8.0 14.5 0.00 0.00 0.00 20 1013.2
20260506230032 26 235 3.2 16.1 0.00 0.00 0.00 20 1013.3
20260506224535 26 169 6.4 19.3 0.00 0.00 0.00 21 1013.3
20260506223036 25 134 8.0 14.5 0.00 0.00 0.00 20 1013.6
20260506221534 26 75 3.2 12.9 0.00 0.00 0.00 20 1013.8
20260506220036 25 117 4.8 14.5 0.00 0.00 0.00 21 1014.0
20260506214531 25 160 1.6 19.3 0.00 0.00 0.00 21 1014.3
20260506213031 25 94 8.0 19.3 0.00 0.00 0.00 22 1014.5
20260506211536 25 83 8.0 16.1 0.00 0.00 0.00 22 1014.7
20260506210034 25 81 4.8 16.1 0.00 0.00 0.00 22 1014.9
20260506204532 24 91 4.8 16.1 0.00 0.00 0.00 23 1015.0
20260506203037 23 80 8.0 20.9 0.00 0.00 0.00 24 1015.2
20260506201533 23 323 3.2 12.9 0.00 0.00 0.00 24 1015.3
20260506200033 23 327 3.2 11.3 0.00 0.00 0.00 24 1015.5
20260506194530 23 134 4.8 14.5 0.00 0.00 0.00 26 1015.9
20260506193034 23 266 8.0 14.5 0.00 0.00 0.00 26 1016.1
20260506191535 22 46 3.2 12.9 0.00 0.00 0.00 26 1016.2
20260506190034 22 44 1.6 14.5 0.00 0.00 0.00 27 1016.4
20260506184531 22 89 6.4 14.5 0.00 0.00 0.00 27 1016.8
20260506183032 21 139 3.2 12.9 0.00 0.00 0.00 28 1017.0
20260506181532 20 0 4.8 11.3 0.00 0.00 0.00 30 1017.1
20260506180045 20 124 3.2 9.7 0.00 0.00 0.00 30 1017.2
20260506174541 21 120 3.2 11.3 0.00 0.00 0.00 30 1017.4
20260506173035 18 310 4.8 9.7 0.00 0.00 0.00 31 1017.6
20260506171533 18 114 4.8 9.7 0.00 0.00 0.00 32 1017.6
20260506170031 17 117 3.2 11.3 0.00 0.00 0.00 35 1017.7
20260506164534 17 50 1.6 9.7 0.00 0.00 0.00 36 1017.8
20260506163055 16 146 4.8 8.0 0.00 0.00 0.00 38 1017.7
20260506161533 16 44 1.6 6.4 0.00 0.00 0.00 39 1017.7
20260506160035 15 321 4.8 9.7 0.00 0.00 0.00 42 1017.8
20260506154550 15 68 0.0 6.4 0.00 0.00 0.00 41 1017.7
20260506153043 14 74 1.6 6.4 0.00 0.00 0.00 44 1017.8
20260506151535 13 72 3.2 6.4 0.00 0.00 0.00 46 1017.8
20260506150034 12 0 0.0 4.8 0.00 0.00 0.00 49 1017.9
20260506144541 12 0 1.6 4.8 0.00 0.00 0.00 49 1017.8
20260506143045 11 0 0.0 4.8 0.00 0.00 0.00 52 1017.7
20260506141537 10 0 0.0 3.2 0.00 0.00 0.00 54 1017.6
20260506140034 9 0 0.0 1.6 0.00 0.00 0.00 58 1017.6
20260506134534 8 0 0.0 3.2 0.00 0.00 0.00 62 1017.6
20260506133035 7 15 1.6 4.8 0.00 0.00 0.00 64 1017.4
20260506131533 6 4 0.0 3.2 0.00 0.00 0.00 66 1017.3
20260506130034 5 336 3.2 4.8 0.00 0.00 0.00 65 1017.0
20260506124535 5 330 1.6 3.2 0.00 0.00 0.00 68 1016.8